Nashua, NH

4:01 PM EDT on August 20, 2017 (GMT -0400)
Boire

Weather History for KASH - October, 2012

Change the Weather History Date:

Saturday, October 13, 2012

  Actual Average Record
Temperature  
Mean Temperature 39 °F -  
Max Temperature 52 °F 61 °F 85 °F (1954)
Min Temperature 26 °F 37 °F 23 °F (1953)
Degree Days  
Heating Degree Days 26    
Moisture  
Dew Point 24 °F    
Average Humidity 58    
Maximum Humidity 86    
Minimum Humidity 29    
Precipitation  
Precipitation 0.00 in - - ()
Sea Level Pressure  
Sea Level Pressure 30.41 in    
Wind  
Wind Speed 4 mph (NW)    
Max Wind Speed 14 mph    
Max Gust Speed 26 mph    
Visibility 8 miles    
Events      
Averages and records for this station are not official NWS values.
T = Trace of Precipitation, MM = Missing Value Source: NWS Daily Summary

Daily Weather History Graph

Daily Weather History Graph

Search for Another Location

Airport or City:

Trip Planner

Search our weather history database for the weather conditions in past years. The results will help you decide how hot, cold, wet, or windy it might be!

Date:

Astronomy

Oct. 13, 2012 Rise Set
Actual Time 6:57 AM EDT 6:06 PM EDT
Civil Twilight 6:29 AM EDT 6:34 PM EDT
Nautical Twilight 5:56 AM EDT 7:07 PM EDT
Astronomical Twilight 5:23 AM EDT 7:39 PM EDT
Moon 4:41 AM EDT (10/13) 4:49 PM EDT (10/13)
Length of Visible Light 12h 05m
Length of Day
11h 08m
Waning Crescent, 5% of the Moon is Illuminated
Oct 13
Waning Crescent
Oct 15
New
Oct 21
First Quarter
Oct 29
Full
Nov 6
Last Quarter

Hourly Weather History & Observations

Time (EDT) Temp. Windchill Dew Point Humidity Pressure Visibility Wind Dir Wind Speed Gust Speed Precip Events Conditions
1:51 AM 30.0 °F - 25.2 °F 82% 30.42 in 10.0 mi Calm Calm - N/A   Clear
6:51 AM 28.0 °F 22.8 °F 24.1 °F 85% 30.47 in 5.0 mi NW 4.6 mph - N/A   Clear
7:00 AM 26.6 °F 21.2 °F 23.0 °F 86% 30.46 in 1.8 mi NW 4.6 mph - N/A   Clear
7:09 AM 26.6 °F 21.2 °F 23.0 °F 86% 30.46 in 3.0 mi NW 4.6 mph - N/A   Clear
7:21 AM 28.4 °F 22.2 °F 23.0 °F 80% 30.46 in 2.0 mi NNW 5.8 mph - N/A   Haze
7:34 AM 28.4 °F 23.3 °F 24.8 °F 86% 30.45 in 9.0 mi NNW 4.6 mph - N/A   Clear
7:51 AM 29.1 °F 24.1 °F 24.1 °F 81% 30.48 in 10.0 mi NW 4.6 mph - N/A   Clear
8:51 AM 34.9 °F 32.0 °F 25.2 °F 68% 30.48 in 10.0 mi NNW 3.5 mph - N/A   Clear
10:51 AM 45.9 °F 40.4 °F 22.1 °F 39% 30.46 in 10.0 mi NNW 11.5 mph 26.5 mph N/A   Clear
11:51 AM 47.8 °F - 20.1 °F 33% 30.44 in 10.0 mi NW 10.4 mph 17.3 mph N/A   Clear
12:51 PM 50.0 °F - 21.0 °F 32% 30.42 in 10.0 mi West 13.8 mph - N/A   Clear
1:51 PM 50.9 °F - 20.1 °F 30% 30.40 in 10.0 mi WNW 6.9 mph - N/A   Clear
2:51 PM 52.0 °F - 21.0 °F 30% 30.38 in 10.0 mi Variable 3.5 mph - N/A   Clear
3:51 PM 52.9 °F - 21.0 °F 29% 30.37 in 10.0 mi WSW 8.1 mph - N/A   Clear
4:51 PM 52.0 °F - 23.0 °F 32% 30.36 in 10.0 mi Calm Calm - N/A   Clear
5:51 PM 46.9 °F - 27.1 °F 46% 30.38 in 10.0 mi SW 3.5 mph - N/A   Clear
6:51 PM 43.0 °F - 30.0 °F 60% 30.39 in 10.0 mi Calm Calm - N/A   Clear
8:51 PM 43.9 °F 42.3 °F 29.1 °F 56% 30.35 in 10.0 mi Variable 3.5 mph - N/A   Scattered Clouds
10:51 PM 43.9 °F 41.3 °F 30.0 °F 58% 30.34 in 10.0 mi SSE 4.6 mph - N/A   Partly Cloudy
11:51 PM 43.9 °F - 31.1 °F 61% 30.33 in 10.0 mi Calm Calm - N/A   Partly Cloudy